RS6S

Last updated on Sun Aug 28 2022 00:02:06 GMT+0000 (Coordinated Universal Time)

1 53311U 98067TW 22239.46022119 .00028280 00000+0 45666-3 0 9995 2 53311 51.6423 343.1484 0001228 120.9672 239.1439 15.52648827 5782
UTC large
Height (km)
Speed (km/s)
/
Latitude / Longitude
Inclination (degrees)
Orbital Period (minutes)
Azimuth
Elevation
Range (km)
Doppler Factor

Next 0 passes for location: London (51.5072 / 0.1276)

Sorry there are no passes over London.